Flag for Germany Weather past 2 weeks in Rheda-Wiedenbrück, North Rhine-Westphalia, Germany

66 °F

Partly sunny.

Feels Like: 66 °F
Forecast: 56 / 65 °F
Wind: 8 mph from Southeast

Location: Paderborn / Lippstadt

Current Time: Oct 6, 2015 at 4:59:42 PM

Latest Report: Oct 6, 2015 at 4:20 PM

Visibility: N/A

Pressure: 29.65 "Hg

Humidity: 68%

Dew point: 55 °F

Location of Rheda-WiedenbrückLocation

Historic Weather in Rheda-Wiedenbrück — Graph


Rheda-Wiedenbrück temperature yesterday

Maximum temperature yesterday: 63 °F (at 2:20 PM)
Minimum temperature yesterday: 46 °F (at 1:50 AM)
Average temperature yesterday: 56 °F

Past Weeks' High & Low Weather Summary

High66 °F (Oct 6, 2:50 PM)100% (Sep 22, 10:20 PM)30.66 "Hg (Sep 22, 10:20 PM)
Low34 °F (Oct 2, 6:20 AM)39% (Oct 2, 5:20 PM)29.53 "Hg (Sep 22, 4:50 PM)
Average52 °F78%30.17 "Hg
* Reported Sep 21 3:20 PM — Oct 6 3:50 PM, Rheda-Wiedenbrück, Weather by CustomWeather, © 2015

Note: Actual official high and low records may vary slightly from our data, if they occured in-between our weather recording intervals... More about our weather records


Rheda-Wiedenbrück weather history for previous 24 hours

Time TempWeatherWind HumidityBarometerVisibility
3:50 PM
Tue, Oct 6
64 °FPartly sunny.7 mph73%29.65 "HgN/A
3:20 PM66 °FScattered clouds.7 mph68%29.65 "HgN/A
2:50 PM66 °FScattered clouds.10 mph68%29.65 "HgN/A
2:20 PM64 °FScattered clouds.6 mph68%29.65 "HgN/A
1:50 PM64 °FScattered clouds.6 mph73%29.68 "HgN/A
1:20 PM63 °FScattered clouds.8 mph77%29.68 "HgN/A
12:50 PM63 °FBroken clouds.14 mph73%29.68 "HgN/A
12:20 PM63 °FBroken clouds.6 mph77%29.65 "HgN/A
11:50 AM61 °FPartly sunny.9 mph83%29.65 "HgN/A
11:20 AM61 °FPartly sunny.12 mph83%29.65 "HgN/A
10:50 AM59 °FPartly sunny.12 mph88%29.65 "HgN/A
10:20 AM57 °FPartly sunny.12 mph88%29.65 "HgN/A
9:50 AM57 °FPartly sunny.12 mph88%29.65 "HgN/A
9:20 AM55 °FBroken clouds.12 mph88%29.65 "HgN/A
8:50 AM55 °FBroken clouds.9 mph88%29.65 "HgN/A
8:20 AM55 °FPassing clouds.9 mph88%29.65 "HgN/A
7:50 AM55 °FPassing clouds.9 mph88%29.65 "HgN/A
7:20 AM55 °FPassing clouds.16 mph88%29.65 "HgN/A
6:50 AM55 °FPassing clouds.15 mph88%29.65 "HgN/A
6:20 AM55 °FPassing clouds.16 mph88%29.65 "HgN/A
5:50 AM54 °FPassing clouds.15 mph94%29.65 "HgN/A
5:20 AM54 °FRain. Passing clouds.10 mph94%29.65 "Hg4 mi
4:50 AM54 °FRain. Passing clouds.7 mph88%29.68 "HgN/A
4:20 AM54 °FLight rain. Clear.8 mph88%29.68 "HgN/A
3:50 AM55 °FClear.10 mph77%29.68 "HgN/A
3:20 AM54 °FClear.7 mph88%29.71 "Hg10 mi
2:50 AM54 °FClear.7 mph82%29.71 "Hg10 mi
2:20 AM54 °FClear.8 mph82%29.74 "HgN/A
1:50 AM54 °FClear.9 mph82%29.74 "HgN/A
1:20 AM55 °FClear.7 mph77%29.77 "Hg10 mi
12:50 AM55 °FClear.5 mph77%29.77 "Hg10 mi
12:20 AM55 °FClear.7 mph77%29.77 "Hg10 mi
11:50 PM
Mon, Oct 5
55 °FPassing clouds.5 mph77%29.80 "HgN/A
10:50 PM55 °FClear.6 mph77%29.80 "Hg10 mi
10:20 PM55 °FClear.7 mph77%29.80 "Hg10 mi
9:50 PM55 °FClear.7 mph77%29.80 "Hg10 mi
9:20 PM55 °FClear.9 mph77%29.83 "Hg10 mi
8:50 PM57 °FClear.10 mph67%29.83 "Hg10 mi
8:20 PM57 °FClear.8 mph67%29.83 "Hg10 mi
7:50 PM57 °FPassing clouds.7 mph67%29.86 "HgN/A
7:20 PM57 °FPassing clouds.6 mph67%29.86 "HgN/A
6:50 PM59 °FPassing clouds.3 mph63%29.86 "HgN/A
6:20 PM61 °FPassing clouds.8 mph59%29.86 "HgN/A
5:50 PM63 °FPassing clouds.12 mph56%29.89 "HgN/A
5:20 PM63 °FSunny.9 mph56%29.89 "Hg10 mi
4:50 PM63 °FSunny.12 mph56%29.89 "Hg10 mi
4:20 PM63 °FPassing clouds.10 mph56%29.89 "HgN/A
Weather by CustomWeather, © 2015

See weather overviewHow to use our weather pages